Regional Weather Roundup
Issued by NWS Wakefield, VA

Home | Current Version | Previous Version | Graphics & Text | Print | Product List | Glossary On
Versions: 1 2 3 4 5 6 7 8 9 10 11 12 13 14 15 16 17 18 19 20 21 22 23 24 25 26 27
000
ASUS41 KAKQ 250715
RWRAKQ

REGIONAL WEATHER ROUNDUP
NATIONAL WEATHER SERVICE WAKEFIELD VA
300 AM EDT WED MAY 25 2016

Note: "fair" indicates few or no clouds below 12,000 feet with no
significant weather and/or obstructions to visibility. * = Denotes
station may not report precipitation (e.g., rain,snow,etc.),
thunder or fog.

VAZ042-051-052>054-056-250800-
NORTHERN VIRGINIA

CITY           SKY/WX    TMP DP  RH WIND       PRES   REMARKS
WASH NATIONAL  FAIR      63  57  81 S6        30.09R
DULLES         FAIR      55  53  93 CALM      30.09R
FORT BELVOIR   FAIR      55  53  95 CALM      30.09R
QUANTICO       FAIR      60  56  86 W7        30.10R
FREDERICKSBRG* FAIR      57  57 100 CALM      30.09R
STAFFORD*      FAIR      54  52  95 NW5       30.13S
WARRENTON      FAIR      55  51  85 CALM      30.10R
CULPEPER*      FAIR      55  55  99 CALM      30.12R
MANASSAS*      FAIR      55  55 100 CALM      30.10R
LEESBURG*      FAIR      61  55  82 CALM      30.10R
WINCHESTER     FAIR      61  50  67 SW5       30.11S
FRONT ROYAL*   FAIR      57  52  82 S6        30.11S
LURAY*         FAIR      52  52 100 CALM      30.14S
$$

VAZ048-049-060>072-079>083-250800-
CENTRAL AND SOUTH CENTRAL VIRGINIA

CITY           SKY/WX    TMP DP  RH WIND       PRES   REMARKS
RICHMOND       FAIR      63  55  75 SW3       30.10R
CHESTERFIELD*  PTSUNNY   64  46  52 W3        30.12S
PETERSBURG*    FAIR      63  57  79 W5        30.12R
HANOVER        FAIR      60  56  86 CALM      30.12R
TAPPAHANNOCK*  FAIR      57  57 100 CALM      30.10S
QUINTON*       FAIR      58  57  96 MISG      30.10R
CHARLOTTSVILLE FAIR      61  51  70 W3        30.13R
GORDONSVILLE*  FAIR      56  54  93 W8        30.11R
ORANGE*        FAIR      57  55  94 CALM      30.13R
LOUISA*        FAIR      57  55  94 CALM      30.11R
BUMPASS*       FAIR      57  56  97 CALM      30.11R
FARMVILLE*     FAIR      57  57  99 CALM      30.12R
CREWE*         FAIR      64  57  80 W3        30.12S
FORT PICKETT*  NOT AVBL
CHASE CITY*    PTSUNNY   62  58  89 CALM      30.14S
CLARKSVILLE*   PTSUNNY   57  57 100 SW3       30.13S
SOUTH HILL*    FAIR      61  55  80 SW5       30.19R
LAWRENCEVILLE* FAIR      60  56  86 CALM      30.13S
EMPORIA*       MOCLDY    57  55  94 CALM      30.14R
$$

VAZ088>098-250800-
SOUTHEAST VIRGINIA

CITY           SKY/WX    TMP DP  RH WIND       PRES   REMARKS
NORFOLK        FAIR      65  56  72 SW9       30.11R
VIRGINIA BEACH MOCLDY    67  55  65 SW7       30.11R
NORFOLK NAVAL  MOCLDY    69  55  60 SW8       30.13R
WEST POINT*    FAIR      59  58  95 CALM      30.11S
SALUDA*        PTSUNNY   65  59  81 CALM      30.09R
NEWPORT NEWS   FAIR      67  57  70 W5        30.11R
LANGLEY AFB    FAIR      67  56  68 SW7       30.11R
FORT EUSTIS    FAIR      64  56  73 SE1       30.09R
WILLIAMSBURG*  FAIR      70  57  64 W6        30.11S
HR EXEC AP*    FAIR      63  55  77 SW5       30.14R
FRANKLIN*      MOCLDY    61  56  84 CALM      30.13R
US460-WAKEFLD  CLOUDY    61  58  90 CALM      30.12R
$$

VAZ020-022-025-037-045-250800-
WEST CENTRAL AND SOUTHWEST VIRGINIA

CITY           SKY/WX    TMP DP  RH WIND       PRES   REMARKS
STAUNTON*      FAIR      52  50  92 CALM      30.18S
WAYNESBORO*    FAIR      52  48  87 S5        30.17R
HOT SPRINGS VA FAIR      59  46  60 NW3       30.24R
LYNCHBURG      FAIR      55  54  96 CALM      30.16R
DANVILLE       FAIR      56  55  97 SW3       30.16R
SOUTH BOSTON*  PTSUNNY   56  55  95 CALM      30.14S
MARTINSVILLE   FAIR      50  50 100 CALM      30.20R
ROANOKE        FAIR      57  52  83 CALM      30.19R
BLACKSBURG     FAIR      52  50  95 CALM      30.24R
DUBLIN*        FAIR      55  51  87 S3        30.23R
MARION*        FAIR      51  50  95 CALM      30.26S
HILLSVILLE*    FAIR      56  49  79 SW5       30.24R
RICHLANDS*     FAIR      59  43  55 SE3       30.23S
WISE*          FAIR      59  41  51 CALM      30.24R
ABINGDON*      FAIR      55  51  89 E3        30.22S
$$

MDZ021>025-VAZ099-100-250800-
SOUTHERN MARYLAND AND THE DELMARVA PENINSULA

CITY           SKY/WX    TMP DP  RH WIND       PRES   REMARKS
PATUXENT RIVER CLEAR     64  54  69 W3        30.07R
BAY BRIDGE APT PTCLDY    66  52  59 W6        30.05S
LEONARDTOWN    CLEAR     61  54  77 W5        30.09S
DOVER          CLEAR     65  55  71 SW7       30.03R
GEORGETOWN     CLEAR     65  55  70 SW5       30.06R
EASTON         CLEAR     62  59  91 CALM      30.10R
CAMBRIDGE        N/A     55  54  94 CALM      30.06S
SALISBURY      CLEAR     61  54  77 CALM      30.06S
OCEAN CITY     CLEAR     66  55  67 W7        30.06R
WALLOPS ISLAND FAIR      68  56  65 SW9       30.07S
ACCOMACK*      MOCLDY    66  55  68 SW7       30.09R
$$

NCZ012>017-030>032-250800-
NORTH CENTRAL AND EASTERN NORTH CAROLINA

CITY           SKY/WX    TMP DP  RH WIND       PRES   REMARKS
ROANOKE RAPIDS FAIR      59  55  88 SW5       30.14R
RALEIGH        PTCLDY    59  56  89 CALM      30.16R
ELIZABETH CITY CLEAR     62  59  90 SW8       30.13S
AHOSKIE*         N/A     60  56  87 CALM      30.14S
EDENTON*       CLEAR    N/A N/A N/A SW7       30.15R
CURRITUCK*     PTCLDY    65  60  85 SW6       30.13S
KILL DEVIL HLS CLEAR     67  59  76 SW6       30.13R
MANTEO         CLEAR     66  62  87 W6        30.15R
CAPE HATTERAS  CLEAR     67  62  84 W8        30.16R
TARBORO*       FAIR      56  56  97 CALM      30.16R
GOLDSBORO      CLEAR     63  61  93 SW6       30.16R
WASHINGTON     CLEAR     63  57  82 SW3       30.16R
GREENVILLE     CLEAR     63  59  88 SW5       30.17R
NEW BERN       CLEAR     63  56  78 SW6       30.18R
WILMINGTON     PTCLDY    65  59  81 CALM      30.18R
$$

VAZ048-250800-
ELSEWHERE

CITY           SKY/WX    TMP DP  RH WIND       PRES   REMARKS
HARRISBURG PA  PTCLDY    59  49  69 CALM      30.05R
BALTIMORE      PTCLDY    61  50  67 W7        30.06R
ANNAPOLIS      PTCLDY    65  50  58 W5        30.05S
ANDREWS AFB    FAIR      63  51  66 W10       30.07R
PHILADELPHIA   CLEAR     62  53  72 CALM      30.04R
HENDERSON NC   PTCLDY    58  54  88 SW5       30.16R
GREENSBORO     PTCLDY    62  54  74 SW3       30.17R
ROCKY MOUNT    CLEAR     59  55  87 S3        30.16R
$$

VAZ100-250800-
MARINE

STATION/POSITION TIME  TEMP    WIND        PRES    WAVE   SWELL
                       AIR SEA DIR/SP/G            HT/PER HT/PER
                 (UTC) (F)     (DEG/KT/KT) (MB)    (FT/S) (FT/S)
BRANDYWINE LGT   0600   66     250/ 17/ 17 1016.6S
CAPE MAY NJ      0600   63 65  250/ 12/ 14 1016.3S
LEWES DE         0600   68 61  240/  8/ 12 1016.9S
15NM E FENWICK I 0650   61 56              1017.4R   2/ 9
OCEAN-CITY-INLET 0600   67 59  280/  8/ 10 1016.8F
WACHAPREAGUE VA  0600   67 68  250/  3/  5 1018.1F
THOMAS POINT MD  0700   69 63  280/ 10/ 10 1019.0R
GOOSES REEF MD   0700   67 65  260/  8/ 10 1019.1R   0
COVE POINT MD    0600   69     270/ 12/ 13 1018.4S
SOLOMONS ISLAND  0600   62 63  320/  2/  3   N/A
BISHOPS HEAD MD  0600   68 68  230/  9/ 11 1018.1S
PINEY POINT MD   0600          290/  5/  6   N/A
POTOMAC MD       0700   66 64  330/  4/  6 1017.5R
CAMBRIDGE MD     0600   67 63  210/  4/  5 1016.9S
LEWISETTA VA     0600   68 66  250/  6/  7 1018.0S
RAPPAHANNOCK LGT 0600          220/ 10/ 11 1019.1F
STINGRAY PT      0700   68 66  290/  4/  4 1019.4R
YORK RVR RNG VA  0600   70     250/ 12/ 14 1018.2F
YORKTOWN VA      0600   70 65  230/ 10/ 12 1018.5F
JAMESTOWN VA     0700   68 67  260/  6/ 14   N/A     0
DOMINION TERM VA 0600   68     220/  6/  7 1019.1F
KIPTOPEKE VA     0600      65  220/  6/  7   N/A
CHES BAY BRIDGE  0600   70 62  200/ 11/ 12 1018.9F
CAPE HENRY VA    0600   70     220/  9/ 12   N/A
CHESAPEAKE LGHT  0600   69     230/ 19/ 19 1019.2F
WILLOUBY STN VA  0600   70     240/  9/  9 1020.0F
CAPE HENRY BUOY  0612      62                N/A     2/10
1ST LANDING BUOY 0700   67 64  210/ 10/ 10 1019.4R   1/ 3
CAPE CHARLES BUO 0626      63                N/A     2/ 9   2/ 9
OFFSHORE WE BUOY 0621      59                N/A     2/ 9   2/ 9
64NM E OF VA BCH 0650   61 56  240/ 12/ 12 1019.5R   3/ 5   3/ 8
DUCK PIER NC     0600   68 61  230/  7/  9 1019.5F
44100 DUCK FRF   0624      61                N/A     2/10   2/11
44056 DUCK FRF   0611      62                N/A     2/ 9
OREGON INLET NC  0600   68 70  240/ 11/ 13 1020.3F
HATTERAS NC      0600   68 68  240/  7/ 10 1020.6S
DIAMOND SHLS NC  0650   70 70  250/ 12/ 14 1021.2R   3/ 5   2/ 8
CAPE LOOKOUT NCC1F1C2F2C3F3C4F4C5F5C6F6C7F7C8M1C9!



USA.gov is the U.S. government's official web portal to all federal, state and local government web resources and services.